SCP
0 0 0 0 0 0 0 0 0 0 0 0 0 0 0 0 0 0 0 0 0 0 0 0 0 0 0 0 0 0 0 0 0 0 0 0 0 0
0 0 0 0 0 0 0 0 0 0 0 0 0 0 0 0 0 0 0 0 0 0 0 0 0 0 0 0 0 0 0 0 0 0 0 0 0 0
0 0 0 0 0 0 0 0 0 0 0 0 0 0 0 0 0 0 0 0 0 0 0 0 0 0 0 0 0 0 0 0 0 0 0 0 0 0
0 0 0 0 0 0 0 0 0 0 0 0 0 0 0 0 0 0 0 0 0 0 0 0 0 0 0 0 0 0 0 0 0 0 0 0 0 0
0 0 0 0 0 0 0 0 0 0 0 0 0 0 0 0 0 0 0 0 0 0 0 0 0 0 0 0 0 0 0 0 0 0 0 0 0 0
0 0 0 0 0 0 0 0 0 0 0 0 0 0 0 0 0 0 0 0 0 0 0 0 0 0 0 0 0 0 0 0 0 0 0 0 0 0
0 0 0 0 0 0 0 0 0 0 0 0 0 0 0 0 0 0 0 0 0 0 0 0 0 0 0 0 0 0 0 0 0 0 0 0 0 0
0 0 0 0 0 0 0 0 0 0 0 0 0 0 0 0 0 0 0 0 0 0 0 0 0 0 0 0 0 0 0 0 0 0 0 0 0 0
0 0 0 0 0 0 0 0 0 0 0 0 0 0 0 0 0 0 0 0 0 0 0 0 0 0 0 0 0 0 0 0 0 0 0 0 0 0
0 0 0 0 0 0 0 0 0 0 0 0 0 0 0 0 0 0 0 0 0 0 0 0 0 0 0 0 0 0 0 0 0 0 0 0 0 0
0 0 0 0 0 0 0 0 0 0 0 0 0 0 0 0 0 0 0 0 0 0 0 0 0 0 0 0 0 0 0 0 0 0 0 0 0 0
0 0 0 0 0 0 0 0 0 0 0 0 0 0 0 0 0 0 0 0 0 0 0 0 0 0 0 0 0 0 0 0 0 0 0 0 0 0
0 0 0 0 0 0 0 0 0 0 0 0 0 0 0 0 0 0 0 0 0 0 0 0 0 0 0 0 0 0 0 0 0 0 0 0 0 0
0 0 0 0 0 0 0 0 0 0 0 0 0 0 0 0 0 0 0 0 0 0 0 0 0 0 0 0 0 0 0 0 0 0 0 0 0 0
0 0 0 0 0 0 0 0 0 0 0 0 0 0 0 0 0 0 0 0 0 0 0 0 0 0 0 0 0 0 0 0 0 0 0 0 0 0
0 0 0 0 0 0 0 0 0 0 0 0 0 0 0 0 0 0 0 0 0 0 0 0 0 0 0 0 0 0 0 0 0 0 0 0 0 0
0 0 0 0 0 0 0 0 0 0 0 0 0 0 0 0 0 0 0 0 0 0 0 0 0 0 0 0 0 0 0 0 0 0 0 0 0 0
0 0 0 0 0 0 0 0 0 0 0 0 0 0 0 0 0 0 0 0 0 0 0 0 0 0 0 0 0 0 0 0 0 0 0 0 0 0
0 0 0 0 0 0 0 0 0 0 0 0 0 0 0 0 0 0 0 0 0 0 0 0 0 0 0 0 0 0 0 0 0 0 0 0 0 0
0 0 0 0 0 0 0 0 0 0 0 0 0 0 0 0 0 0 0 0 0 0 0 0 0 0 0 0 0 0 0 0 0 0 0 0 0 0
0 0 0 0 0 0 0 0 0 0 0 0 0 0 0 0 0 0 0 0 0 0 0 0 0 0 0 0 0 0 0 0 0 0 0 0 0 0
0 0 0 0 0 0 0 0 0 0 0 0 0 0 0 0 0 0 0 0 0 0 0 0 0 0 0 0 0 0 0 0 0 0 0 0 0 0
0 0 0 0 0 0 0 0 0 0 0 0 0 0 0 0 0 0 0 0 0 0 0 0 0 0 0 0 0 0 0 0 0 0 0 0 0 0
Wind_Speed
8 7 6 5 5 4 3 2 2 0 2 3 1 3 2 3 3 4 4 5 4 5 6 7 7 8 8 9 9 9 9 9 10 11 11 12 12 13
7 8 6 6 5 5 4 4 3 3 2 3 2 3 4 3 3 4 4 2 6 2 4 7 8 8 9 9 9 9 9 10 10 11 11 12 13 13
7 8 8 7 5 4 4 4 4 4 2 3 2 3 3 4 4 5 4 5 1 3 2 5 7 7 8 8 8 8 8 9 10 11 11 12 12 13
7 7 7 5 5 5 4 5 5 4 3 3 2 2 2 3 4 5 4 4 4 4 3 5 5 5 6 6 7 7 7 8 9 10 11 11 12 12
7 7 7 6 6 5 4 5 4 3 3 2 2 2 2 3 5 4 4 3 5 1 6 7 5 3 3 3 4 5 6 7 8 9 10 11 11 12
6 6 6 6 6 5 4 4 4 3 1 2 2 2 2 3 3 4 4 4 4 4 3 3 4 8 6 3 1 4 6 7 8 9 9 10 10 11
5 5 7 7 7 6 5 5 4 4 3 3 2 3 4 4 5 5 5 5 3 3 5 3 2 1 2 5 2 5 7 8 8 9 9 9 10 10
5 5 5 4 3 2 1 3 5 6 6 6 4 5 5 5 5 5 5 5 4 4 6 4 3 3 3 4 6 4 6 7 8 8 9 9 10 10
4 3 3 5 2 3 2 6 5 5 5 6 7 7 6 6 7 7 6 7 6 5 6 5 4 3 2 5 6 2 3 5 7 8 9 9 10 10
4 4 3 4 7 7 6 4 3 1 1 4 5 6 7 7 7 7 7 7 6 2 3 5 5 4 4 2 7 3 1 1 4 6 7 9 11 11
3 4 5 5 7 7 6 5 4 2 3 5 6 7 8 8 7 7 6 6 5 3 3 5 5 5 3 1 4 8 5 4 2 2 5 8 12 13
3 4 7 6 6 7 6 6 6 6 6 3 4 6 7 6 9 7 7 6 6 4 5 5 6 6 4 3 4 2 1 4 5 4 1 4 10 10
3 3 6 6 5 5 6 5 6 8 7 6 4 3 2 1 1 2 4 5 6 5 6 6 6 6 5 5 4 4 4 4 3 0 3 1 3 7
4 5 6 5 4 4 4 5 7 9 6 4 4 4 4 4 4 5 4 4 4 5 6 6 6 7 7 7 6 6 5 5 5 5 4 1 1 1
4 5 3 4 5 3 1 4 7 5 5 5 5 5 5 4 5 3 3 3 4 4 2 4 6 6 6 7 7 6 6 5 5 6 5 5 5 5
0 3 6 6 4 2 1 2 3 5 5 5 5 5 4 4 4 4 4 4 4 2 1 3 4 6 6 7 7 6 6 6 6 6 6 4 4 5
6 3 2 2 2 3 3 3 3 4 4 5 5 5 5 5 5 4 4 5 5 4 4 3 3 4 5 5 6 6 6 6 6 6 6 5 4 4
7 3 3 4 4 4 4 4 4 5 5 5 5 5 5 5 5 5 5 6 5 5 5 5 5 5 4 1 2 7 7 6 6 6 5 5 5 4
4 3 4 4 4 4 5 5 5 5 5 5 5 5 5 6 6 5 5 6 6 6 6 5 6 7 8 6 2 0 6 7 7 6 5 5 5 4
3 4 4 4 4 5 5 5 5 5 5 5 5 5 6 6 6 6 5 7 7 7 6 5 6 7 7 7 7 3 2 5 7 7 7 6 4 1
4 4 4 4 5 5 5 4 5 5 5 5 5 5 5 6 6 7 6 5 6 6 7 6 5 3 6 6 5 5 3 3 2 4 7 7 7 5
4 4 4 4 4 5 5 5 5 4 5 4 5 5 5 6 6 7 7 7 6 6 7 6 5 4 5 5 6 6 6 3 4 8 6 4 6 7
4 4 4 4 4 4 5 6 6 5 5 5 5 5 6 6 6 6 6 6 7 7 7 6 5 5 5 5 6 5 7 7 5 2 2 10 12 12
Wind_Direction
80 76 69 66 57 52 46 18 335 253 119 114 66 57 3 21 18 330 344 47 330 327 330 328 328 327 323 320 317 315 311 307 305 304 302 299 299 300
70 67 61 65 60 54 49 43 17 358 55 74 61 42 16 343 51 335 335 258 239 262 322 325 321 319 318 317 317 317 314 312 309 307 304 303 303 302
75 74 67 52 53 57 55 52 44 35 57 73 68 69 14 346 355 335 325 314 51 148 321 317 314 314 317 322 323 323 320 317 314 312 309 307 304 301
76 74 71 68 60 47 45 51 51 34 28 39 28 41 14 348 343 314 326 334 319 138 234 275 293 309 320 327 330 331 331 327 324 320 315 311 308 305
74 72 67 62 55 52 40 47 46 46 27 6 18 17 343 3 325 317 329 325 311 164 213 221 226 263 296 319 334 341 338 334 330 327 322 317 312 309
73 66 60 53 47 44 49 41 25 11 20 344 2 5 354 359 318 338 341 341 331 341 340 286 212 215 217 220 341 358 348 340 333 329 325 320 316 312
80 72 66 56 39 15 12 15 4 351 352 354 356 5 13 357 354 346 339 333 336 355 333 326 330 318 194 183 118 22 352 341 334 330 327 323 320 317
77 77 101 104 97 151 37 348 341 340 349 339 351 2 2 357 353 332 338 338 339 14 332 332 353 355 0 50 67 31 358 347 343 340 337 332 327 321
62 53 53 66 354 26 173 212 223 229 265 313 334 345 343 356 338 333 344 335 330 341 329 331 349 352 355 92 112 57 4 351 350 347 342 336 329 322
57 44 34 41 37 354 339 347 349 74 236 281 324 324 333 334 321 306 300 294 286 263 331 326 342 346 356 98 145 161 181 329 340 342 339 336 328 317
61 46 14 32 46 342 319 342 359 21 186 229 267 281 291 285 287 296 311 318 336 13 5 332 338 338 340 39 150 182 195 205 248 314 335 341 332 315
87 102 78 29 10 339 329 350 1 360 343 323 251 239 247 232 225 264 314 330 340 354 17 338 337 338 342 359 4 32 207 198 213 215 286 347 344 336
45 61 68 37 8 343 321 352 353 318 310 316 323 331 326 328 286 305 333 322 332 344 358 343 336 341 341 342 349 4 3 358 349 234 186 176 354 348
25 38 57 19 351 345 354 1 314 294 306 333 345 0 359 1 0 344 337 319 305 307 321 327 324 333 332 335 343 352 2 2 353 355 3 139 199 209
34 42 0 316 286 228 99 306 299 319 345 347 355 360 356 352 325 320 316 303 282 269 289 306 311 322 322 326 337 346 350 359 0 357 360 1 8 8
346 172 211 242 267 326 280 287 343 9 346 342 346 344 341 339 341 351 342 333 327 340 255 268 286 304 315 330 332 342 352 352 355 0 355 359 24 28
333 318 347 14 5 14 12 16 1 358 351 353 342 340 346 349 353 357 343 332 336 341 345 340 317 291 287 305 332 346 349 352 356 355 338 352 25 34
310 349 15 14 10 7 2 1 4 5 355 344 341 344 347 345 344 344 344 345 344 346 346 346 340 328 313 152 346 343 351 354 347 340 337 347 6 33
302 15 19 16 10 6 2 358 356 359 343 337 345 344 341 338 339 343 349 349 346 345 342 344 349 348 344 355 60 180 343 346 340 342 349 344 343 11
6 20 17 11 7 3 359 355 347 347 348 344 346 342 339 336 337 339 347 354 339 335 339 348 1 355 343 339 334 344 167 345 346 345 346 336 337 117
17 18 13 6 3 356 352 349 343 342 347 336 341 341 337 333 338 339 342 345 322 334 341 351 7 278 285 302 321 356 33 173 263 324 340 340 346 358
11 10 10 2 354 349 346 345 343 343 342 336 346 341 336 333 336 335 337 337 339 344 341 342 343 320 319 337 341 352 2 351 205 217 250 288 337 349
12 358 351 354 358 349 351 351 345 343 348 347 342 339 334 332 329 328 334 338 343 345 340 344 347 345 347 347 344 353 356 350 352 332 184 198 221 237